Preview of NWS' New Version of Forecast
This preview is not operational and should not be used for support decisions.

Regional Weather Roundup (RWR)

Issued by National Weather Service (NWS)

                            
000
ASUS44 KJAN 231610
RWRMS 

MISSISSIPPI HOURLY WEATHER ROUNDUP
NATIONAL WEATHER SERVICE JACKSON MS
1100 AM CDT SUN JUN 23 2019

NOTE: "FAIR: INDICATES FEW OR NO CLOUDS BELOW 12,000 FEET WITH NO
SIGNIFICANT WEATHER AND/OR OBSTRUCTIONS TO VISIBILITY.

MSZ001>002-007>008-010>013-018>021-025>028-034>036-231700-
NORTHWEST MISSISSIPPI
  
CITY           SKY/WX    TMP DP  RH WIND       PRES   REMARKS
BATESVILLE     PTSUNNY   84  75  74 SW15      29.98S HX  92           
CLARKSDALE     SUNNY     90  77  66 S14G23    29.96F HX 102           
CLEVELAND      PTSUNNY   85  75  73 S15G24    29.97S HX  94           
GREENWOOD      FAIR      86  74  67 S15       30.00S HX  94           
GREENVILLE     PTSUNNY   86  74  67 S17       29.96S HX  94           
OLIVE BRANCH   MOSUNNY   86  73  66 S12G23    29.97F HX  93           
OXFORD         PTSUNNY   84  72  65 SW14G20   30.01S                  
TUNICA           N/A     86  72  62 S17G26    29.96F HX  92           
WINONA         FAIR      85  73  65 S15       30.02F HX  92           
$$

MSZ003>006-009-014>017-022>024-029>033-037>039-231700-
NORTHEAST MISSISSIPPI
  
CITY           SKY/WX    TMP DP  RH WIND       PRES   REMARKS
ABERDEEN       PTSUNNY   88  75  66 SW10      30.04S HX  97           
COLUMBUS AFB   FAIR      88  76  67 S8        30.03F HX  98           
CORINTH        FAIR      86  73  66 SW9       30.00F HX  93           
GOLDN TRIANGLE PTSUNNY   88  75  65 S12       30.04S HX  97           
STARKVILLE     FAIR      86  73  66 SW6       30.04F HX  93           
TUPELO         FAIR      88  74  63 S10       30.01F HX  96           
$$

MSZ040-058-231700-
CENTRAL MISSISSIPPI
  
CITY           SKY/WX    TMP DP  RH WIND       PRES   REMARKS
JACKSON INTL   FAIR      87  74  64 SW13      30.02F HX  95           
JACKSON HAWKNS FAIR      87  76  69 SW12      30.02F HX  97           
MADISON        FAIR      86  75  70 SW9G17    30.02S HX  95           
MERIDIAN KEY   FAIR      90  71  53 S10G17    30.05S HX  96           
MERIDIAN NAS   FAIR      89  69  51 W8        30.06R HX  93           
RAYMOND        FAIR      90  79  70 S12G20    30.01F HX 105           
VICKSBURG VKS  MOSUNNY   88  77  70 SW10      30.01S HX 100           
$$

MSZ059>079-231700-
SOUTH MISSISSIPPI
  
CITY           SKY/WX    TMP DP  RH WIND       PRES   REMARKS
BROOKHAVEN     FAIR      88  77  70 E14       30.04F HX 100           
HATTIESBURG    FAIR      89  72  56 S12       30.05F HX  96           
LAUREL         MOSUNNY   89  74  61 S5        30.05S HX  97           
MCCOMB         FAIR      89  75  63 S13       30.03F HX  99           
NATCHEZ        PTSUNNY   86  77  74 S12       30.02  HX  97           
PINE BELT      FAIR      89  74  60 S9        30.06S HX  98           
$$

MSZ080>082-231700-
COASTAL MISSISSIPPI
  
CITY           SKY/WX    TMP DP  RH WIND       PRES   REMARKS
BAY ST LOUIS   MOSUNNY   88  75  66 S10       30.06R HX  97           
BILOXI         FAIR      89  78  68 SW12      30.06R HX 103           
PASCAGOULA     FAIR      91  74  57 SW8       30.06S HX 100           
GULFPORT       FAIR      88  76  67 S12       30.05S HX  99           
$$

LAZ007>009-015>016-023>026-231700-
NORTHEAST LOUISIANA
  
CITY           SKY/WX    TMP DP  RH WIND       PRES   REMARKS
BASTROP        PTSUNNY   87  75  66 S10G21    29.97S HX  96           
TALLULAH/VBURG PTSUNNY   87  77  72 VRB6G17   30.00F HX  99           
VIDALIA        FAIR      87  78  74 S12       30.00S HX 100           
$$